"Period start","avg(HW err(1)/warn(2) (#))","avg(Visibility (m))","avg(Weather code (#))","avg(Precip intensity (mm/h))","min(HW err(1)/warn(2) (#))","max(HW err(1)/warn(2) (#))","std(HW err(1)/warn(2) (#))","med(HW err(1)/warn(2) (#))","min(Visibility (m))","max(Visibility (m))","std(Visibility (m))","med(Visibility (m))","min(Weather code (#))","max(Weather code (#))","std(Weather code (#))","med(Weather code (#))","min(Precip intensity (mm/h))","max(Precip intensity (mm/h))","std(Precip intensity (mm/h))","med(Precip intensity (mm/h))"
2014-07-31 00:00:00,0,5033,10,0.00,0,0,0,0,4838,5519,186,4974,10,10,0,10,0.00,0.00,0.00,0.00
2014-07-31 00:10:00,0,5227,10,0.00,0,0,0,0,4944,5724,230,5196,10,10,0,10,0.00,0.00,0.00,0.00
2014-07-31 00:20:00,0,5059,10,0.00,0,0,0,0,4916,5288,141,4977,10,10,0,10,0.00,0.00,0.00,0.00
2014-07-31 00:30:00,0,5350,10,0.00,0,0,0,0,5058,5715,179,5338,10,10,0,10,0.00,0.00,0.00,0.00
2014-07-31 00:40:00,0,5150,10,0.00,0,0,0,0,4787,5566,193,5135,10,10,0,10,0.00,0.00,0.00,0.00
2014-07-31 00:50:00,0,4967,10,0.00,0,0,0,0,4681,5237,169,4950,10,10,0,10,0.00,0.00,0.00,0.00
2014-07-31 01:00:00,0,5178,10,0.00,0,0,0,0,4585,5601,341,5320,10,10,0,10,0.00,0.00,0.00,0.00
2014-07-31 01:10:00,0,4990,10,0.00,0,0,0,0,4633,5640,278,5005,10,10,0,10,0.00,0.00,0.00,0.00
2014-07-31 01:20:00,0,4143,10,0.00,0,0,0,0,3854,4596,191,4130,10,10,0,10,0.00,0.00,0.00,0.00
2014-07-31 01:30:00,0,4943,10,0.00,0,0,0,0,4607,5213,169,4972,10,10,0,10,0.00,0.00,0.00,0.00
2014-07-31 01:40:00,0,4414,10,0.00,0,0,0,0,3984,4946,320,4456,10,10,0,10,0.00,0.00,0.00,0.00
2014-07-31 01:50:00,0,4020,10,0.00,0,0,0,0,3762,4328,184,4004,10,10,0,10,0.00,0.00,0.00,0.00
2014-07-31 02:00:00,0,3691,10,0.00,0,0,0,0,3621,3752,45,3692,10,10,0,10,0.00,0.00,0.00,0.00
2014-07-31 02:10:00,0,3565,10,0.00,0,0,0,0,3438,3777,99,3531,10,10,0,10,0.00,0.00,0.00,0.00
2014-07-31 02:20:00,0,3436,10,0.00,0,0,0,0,3350,3530,57,3432,10,10,0,10,0.00,0.00,0.00,0.00
2014-07-31 02:30:00,0,3426,10,0.00,0,2,1,0,3301,3528,76,3443,10,10,0,10,0.00,0.00,0.00,0.00
2014-07-31 02:40:00,0,3478,10,0.00,0,0,0,0,3372,3725,92,3458,10,10,0,10,0.00,0.00,0.00,0.00
2014-07-31 02:50:00,0,3404,10,0.00,0,0,0,0,3175,3905,232,3306,10,10,0,10,0.00,0.00,0.00,0.00
2014-07-31 03:00:00,0,3448,6,0.00,0,0,0,0,3186,3831,186,3400,4,10,3,4,0.00,0.00,0.00,0.00
2014-07-31 03:10:00,0,3490,4,0.00,0,2,1,0,3222,3724,142,3506,4,4,0,4,0.00,0.00,0.00,0.00
2014-07-31 03:20:00,0,3341,4,0.00,0,0,0,0,3106,3444,100,3375,4,4,0,4,0.00,0.00,0.00,0.00
2014-07-31 03:30:00,0,3349,4,0.00,0,0,0,0,3267,3433,58,3338,4,4,0,4,0.00,0.00,0.00,0.00
2014-07-31 03:40:00,0,3300,4,0.00,0,0,0,0,3136,3396,83,3312,4,4,0,4,0.00,0.00,0.00,0.00
2014-07-31 03:50:00,0,3153,4,0.00,0,0,0,0,3041,3295,82,3178,4,4,0,4,0.00,0.00,0.00,0.00
2014-07-31 04:00:00,0,3062,4,0.00,0,0,0,0,2974,3116,43,3066,4,4,0,4,0.00,0.00,0.00,0.00
2014-07-31 04:10:00,0,3053,4,0.00,0,0,0,0,2876,3148,74,3045,4,4,0,4,0.00,0.00,0.00,0.00
2014-07-31 04:20:00,0,3031,4,0.00,0,2,1,0,2949,3134,52,3024,4,4,0,4,0.00,0.00,0.00,0.00
2014-07-31 04:30:00,0,2974,4,0.00,0,2,1,0,2893,3084,54,2956,4,4,0,4,0.00,0.00,0.00,0.00
2014-07-31 04:40:00,0,2978,4,0.00,0,0,0,0,2866,3045,52,2986,4,4,0,4,0.00,0.00,0.00,0.00
2014-07-31 04:50:00,0,3160,4,0.00,0,0,0,0,3047,3298,74,3150,4,4,0,4,0.00,0.00,0.00,0.00
2014-07-31 05:00:00,0,3260,4,0.00,0,2,1,0,3164,3396,78,3240,4,4,0,4,0.00,0.00,0.00,0.00
2014-07-31 05:10:00,0,3391,4,0.00,0,0,0,0,3295,3463,46,3406,4,4,0,4,0.00,0.00,0.00,0.00
2014-07-31 05:20:00,0,3253,4,0.00,0,0,0,0,3147,3309,43,3266,4,4,0,4,0.00,0.00,0.00,0.00
2014-07-31 05:30:00,0,3294,4,0.00,0,0,0,0,3187,3380,61,3288,4,4,0,4,0.00,0.00,0.00,0.00
2014-07-31 05:40:00,0,3410,4,0.00,0,0,0,0,3329,3526,62,3408,4,4,0,4,0.00,0.00,0.00,0.00
2014-07-31 05:50:00,0,3369,4,0.00,0,0,0,0,3281,3437,47,3367,4,4,0,4,0.00,0.00,0.00,0.00
2014-07-31 06:00:00,0,3350,4,0.00,0,0,0,0,3305,3458,42,3343,4,4,0,4,0.00,0.00,0.00,0.00
2014-07-31 06:10:00,0,3379,4,0.00,0,0,0,0,3253,3477,62,3378,4,4,0,4,0.00,0.00,0.00,0.00
2014-07-31 06:20:00,0,3427,4,0.00,0,0,0,0,3333,3576,71,3428,4,4,0,4,0.00,0.00,0.00,0.00
2014-07-31 06:30:00,0,3541,4,0.00,0,0,0,0,3386,3833,137,3494,4,4,0,4,0.00,0.00,0.00,0.00
2014-07-31 06:40:00,0,4004,4,0.00,0,0,0,0,3747,4407,159,4010,4,4,0,4,0.00,0.00,0.00,0.00
2014-07-31 06:50:00,0,4000,4,0.00,0,2,1,0,3741,4333,166,3974,4,4,0,4,0.00,0.00,0.00,0.00
2014-07-31 07:00:00,0,3814,4,0.00,0,0,0,0,3665,3981,106,3796,4,4,0,4,0.00,0.00,0.00,0.00
2014-07-31 07:10:00,0,3762,4,0.00,0,2,1,0,3686,3864,49,3757,4,4,0,4,0.00,0.00,0.00,0.00
2014-07-31 07:20:00,0,3916,4,0.00,0,2,1,0,3843,4019,52,3907,4,4,0,4,0.00,0.00,0.00,0.00
2014-07-31 07:30:00,0,3847,4,0.00,0,0,0,0,3756,3952,62,3850,4,4,0,4,0.00,0.00,0.00,0.00
2014-07-31 07:40:00,0,3779,4,0.00,0,2,1,0,3677,3861,49,3778,4,4,0,4,0.00,0.00,0.00,0.00
2014-07-31 07:50:00,0,3829,4,0.00,0,0,0,0,3704,3965,67,3832,4,4,0,4,0.00,0.00,0.00,0.00
2014-07-31 08:00:00,0,3808,4,0.00,0,0,0,0,3737,3887,50,3796,4,4,0,4,0.00,0.00,0.00,0.00
2014-07-31 08:10:00,0,3852,4,0.00,0,0,0,0,3734,3969,76,3874,4,4,0,4,0.00,0.00,0.00,0.00
2014-07-31 08:20:00,0,3856,4,0.00,0,0,0,0,3775,3965,59,3855,4,4,0,4,0.00,0.00,0.00,0.00
2014-07-31 08:30:00,0,3809,4,0.00,0,0,0,0,3638,3904,81,3810,4,4,0,4,0.00,0.00,0.00,0.00
2014-07-31 08:40:00,0,3742,4,0.00,0,0,0,0,3675,3873,56,3732,4,4,0,4,0.00,0.00,0.00,0.00
2014-07-31 08:50:00,0,3609,6,0.00,0,0,0,0,3399,3807,142,3640,4,10,3,4,0.00,0.00,0.00,0.00
2014-07-31 09:00:00,0,3265,10,0.00,0,0,0,0,3225,3301,25,3265,10,10,0,10,0.00,0.00,0.00,0.00
2014-07-31 09:10:00,0,3146,10,0.00,0,0,0,0,3041,3335,89,3120,10,10,0,10,0.00,0.00,0.00,0.00
2014-07-31 09:20:00,0,3163,10,0.00,0,0,0,0,3093,3226,41,3162,10,10,0,10,0.00,0.00,0.00,0.00
2014-07-31 09:30:00,0,2994,10,0.00,0,0,0,0,2832,3198,125,2974,10,10,0,10,0.00,0.00,0.00,0.00
2014-07-31 09:40:00,0,2843,10,0.00,0,0,0,0,2816,2864,14,2841,10,10,0,10,0.00,0.00,0.00,0.00
2014-07-31 09:50:00,0,2814,10,0.00,0,0,0,0,2765,2865,28,2820,10,10,0,10,0.00,0.00,0.00,0.00
2014-07-31 10:00:00,0,2794,10,0.00,0,0,0,0,2759,2816,15,2797,10,10,0,10,0.00,0.00,0.00,0.00
2014-07-31 10:10:00,0,2803,10,0.00,0,0,0,0,2771,2840,22,2804,10,10,0,10,0.00,0.00,0.00,0.00
2014-07-31 10:20:00,0,2867,10,0.00,0,0,0,0,2839,2884,13,2870,10,10,0,10,0.00,0.00,0.00,0.00
2014-07-31 10:30:00,0,2858,10,0.00,0,0,0,0,2824,2888,19,2856,10,10,0,10,0.00,0.00,0.00,0.00
2014-07-31 10:40:00,0,2863,10,0.00,0,0,0,0,2672,2909,66,2877,10,10,0,10,0.00,0.00,0.00,0.00
2014-07-31 10:50:00,0,2865,10,0.00,0,0,0,0,2857,2873,5,2866,10,10,0,10,0.00,0.00,0.00,0.00
2014-07-31 11:00:00,0,2892,10,0.00,0,0,0,0,2867,2916,15,2893,10,10,0,10,0.00,0.00,0.00,0.00
2014-07-31 11:10:00,0,2865,10,0.00,0,0,0,0,2833,2887,16,2863,10,10,0,10,0.00,0.00,0.00,0.00
2014-07-31 11:20:00,0,2840,10,0.00,0,0,0,0,2822,2859,10,2838,10,10,0,10,0.00,0.00,0.00,0.00
2014-07-31 11:30:00,0,2830,10,0.00,0,0,0,0,2792,2860,19,2833,10,10,0,10,0.00,0.00,0.00,0.00
2014-07-31 11:40:00,0,2782,10,0.00,0,0,0,0,2766,2812,15,2778,10,10,0,10,0.00,0.00,0.00,0.00
2014-07-31 11:50:00,0,2772,10,0.00,0,0,0,0,2755,2786,10,2774,10,10,0,10,0.00,0.00,0.00,0.00
2014-07-31 12:00:00,0,2756,10,0.00,0,0,0,0,2729,2790,16,2758,10,10,0,10,0.00,0.00,0.00,0.00
2014-07-31 12:10:00,0,2751,10,0.00,0,0,0,0,2732,2761,9,2752,10,10,0,10,0.00,0.00,0.00,0.00
2014-07-31 12:20:00,0,2736,10,0.00,0,0,0,0,2718,2757,11,2734,10,10,0,10,0.00,0.00,0.00,0.00
2014-07-31 12:30:00,0,2738,10,0.00,0,0,0,0,2716,2753,12,2740,10,10,0,10,0.00,0.00,0.00,0.00
2014-07-31 12:40:00,0,2697,10,0.00,0,0,0,0,2657,2739,28,2698,10,10,0,10,0.00,0.00,0.00,0.00
2014-07-31 12:50:00,0,2717,49,0.17,0,0,0,0,2682,2746,19,2723,41,51,4,51,0.05,0.30,0.08,0.17
2014-07-31 13:00:00,0,2740,54,0.26,0,0,0,0,2709,2771,19,2741,51,61,5,51,0.05,0.70,0.24,0.12
2014-07-31 13:10:00,0,2655,54,0.75,0,0,0,0,2600,2697,29,2654,51,61,4,52,0.35,2.25,0.59,0.45
2014-07-31 13:20:00,0,2638,43,0.05,0,0,0,0,2604,2684,26,2637,10,51,16,51,0.00,0.15,0.06,0.03
2014-07-31 13:30:00,0,2640,10,0.00,0,0,0,0,2610,2666,16,2638,10,10,0,10,0.00,0.00,0.00,0.00
2014-07-31 13:40:00,0,2630,53,0.18,0,0,0,0,2612,2643,10,2634,51,61,4,51,0.05,0.50,0.14,0.12
2014-07-31 13:50:00,0,2657,54,0.07,0,0,0,0,2629,2697,19,2653,10,61,15,61,0.00,0.35,0.11,0.00
2014-07-31 14:00:00,0,2684,10,0.00,0,0,0,0,2653,2708,17,2690,10,10,0,10,0.00,0.00,0.00,0.00
2014-07-31 14:10:00,0,2746,10,0.00,0,0,0,0,2672,2817,48,2766,10,10,0,10,0.00,0.00,0.00,0.00
2014-07-31 14:20:00,0,2793,15,0.10,0,0,0,0,2753,2870,34,2778,10,61,15,10,0.00,1.00,0.30,0.00
2014-07-31 14:30:00,0,2877,61,1.79,0,0,0,0,2820,2926,26,2876,61,61,0,61,0.10,5.30,1.47,1.20
2014-07-31 14:40:00,0,2926,15,0.00,0,0,0,0,2882,2950,20,2932,10,61,15,10,0.00,0.00,0.00,0.00
2014-07-31 14:50:00,0,3022,10,0.00,0,0,0,0,2985,3063,26,3022,10,10,0,10,0.00,0.00,0.00,0.00
2014-07-31 15:00:00,0,3068,10,0.00,0,0,0,0,2996,3171,66,3032,10,10,0,10,0.00,0.00,0.00,0.00
2014-07-31 15:10:00,0,3131,30,2.17,0,0,0,0,2953,3339,115,3090,10,61,25,10,0.00,7.45,2.78,0.00
2014-07-31 15:20:00,0,3081,61,4.30,0,0,0,0,2884,3333,143,3048,61,61,0,61,0.10,9.85,3.13,4.38
2014-07-31 15:30:00,0,2830,20,0.00,0,0,0,0,2759,2884,45,2831,10,61,20,10,0.00,0.00,0.00,0.00
2014-07-31 15:40:00,0,2857,10,0.00,0,0,0,0,2811,2908,25,2857,10,10,0,10,0.00,0.00,0.00,0.00
2014-07-31 15:50:00,0,2801,36,0.70,0,0,0,0,2722,2930,66,2782,10,61,26,36,0.00,2.25,0.77,0.50
2014-07-31 16:00:00,0,2799,61,6.45,0,0,0,0,2563,2938,104,2838,61,62,0,61,3.35,11.60,2.34,5.90
2014-07-31 16:10:00,0,2672,62,11.25,0,0,0,0,2459,2857,125,2670,61,62,0,62,6.90,15.10,2.12,11.10
2014-07-31 16:20:00,0,2780,62,16.75,0,0,0,0,2395,2971,165,2828,61,62,0,62,7.00,33.45,7.21,14.22
2014-07-31 16:30:00,0,3162,62,11.63,0,0,0,0,2917,3412,148,3136,61,62,0,62,1.50,20.15,6.15,12.10
2014-07-31 16:40:00,0,3156,61,7.90,0,0,0,0,2194,3520,489,3436,61,62,0,61,1.90,24.95,8.18,3.35
2014-07-31 16:50:00,0,3014,61,4.65,0,0,0,0,2593,3231,239,3159,61,61,0,61,1.35,9.25,2.31,4.25
2014-07-31 17:00:00,0,3090,61,3.14,0,0,0,0,2858,3223,118,3135,61,61,0,61,1.00,5.75,1.54,3.45
2014-07-31 17:10:00,0,3244,61,0.75,0,0,0,0,3142,3353,55,3250,61,61,0,61,0.20,2.95,0.84,0.33
2014-07-31 17:20:00,0,2928,61,8.17,0,0,0,0,2696,3055,124,2980,61,62,0,61,2.10,19.60,6.08,4.75
2014-07-31 17:30:00,0,2945,61,0.88,0,0,0,0,2912,2991,30,2928,61,61,0,61,0.15,4.65,1.30,0.38
2014-07-31 17:40:00,0,2910,51,0.16,0,0,0,0,2828,2959,43,2925,51,51,0,51,0.00,0.45,0.14,0.10
2014-07-31 17:50:00,0,2721,55,7.28,0,0,0,0,2258,2891,185,2771,51,62,5,51,0.00,27.95,10.49,0.17
2014-07-31 18:00:00,0,2792,15,0.00,0,0,0,0,2735,2849,38,2788,10,61,15,10,0.00,0.00,0.00,0.00
2014-07-31 18:10:00,0,2832,10,0.00,0,0,0,0,2770,2880,31,2835,10,10,0,10,0.00,0.00,0.00,0.00
2014-07-31 18:20:00,0,2833,10,0.00,0,0,0,0,2681,2941,84,2845,10,10,0,10,0.00,0.00,0.00,0.00
2014-07-31 18:30:00,0,3004,10,0.00,0,0,0,0,2957,3065,31,2996,10,10,0,10,0.00,0.00,0.00,0.00
2014-07-31 18:40:00,0,3025,10,0.00,0,0,0,0,2954,3075,36,3025,10,10,0,10,0.00,0.00,0.00,0.00
2014-07-31 18:50:00,0,3128,10,0.00,0,0,0,0,3065,3179,35,3138,10,10,0,10,0.00,0.00,0.00,0.00
2014-07-31 19:00:00,0,3223,10,0.00,0,0,0,0,3138,3310,53,3209,10,10,0,10,0.00,0.00,0.00,0.00
2014-07-31 19:10:00,0,3459,10,0.00,0,0,0,0,3257,3606,115,3462,10,10,0,10,0.00,0.00,0.00,0.00
2014-07-31 19:20:00,0,3634,10,0.00,0,0,0,0,3591,3672,25,3634,10,10,0,10,0.00,0.00,0.00,0.00
2014-07-31 19:30:00,0,4348,10,0.00,0,0,0,0,3680,5377,637,4098,10,10,0,10,0.00,0.00,0.00,0.00
2014-07-31 19:40:00,0,6511,10,0.00,0,0,0,0,5542,8694,958,6166,10,10,0,10,0.00,0.00,0.00,0.00
2014-07-31 19:50:00,0,9214,10,0.00,0,0,0,0,8568,9786,477,9237,10,10,0,10,0.00,0.00,0.00,0.00
2014-07-31 20:00:00,0,8899,10,0.00,0,0,0,0,7709,9661,610,8916,10,10,0,10,0.00,0.00,0.00,0.00
2014-07-31 20:10:00,0,7919,10,0.00,0,0,0,0,7058,9059,762,7662,10,10,0,10,0.00,0.00,0.00,0.00
2014-07-31 20:20:00,0,9457,10,0.00,0,0,0,0,8488,10528,682,9660,10,10,0,10,0.00,0.00,0.00,0.00
2014-07-31 20:30:00,0,10281,10,0.00,0,0,0,0,9141,11020,508,10433,10,10,0,10,0.00,0.00,0.00,0.00
2014-07-31 20:40:00,0,11418,10,0.00,0,0,0,0,8620,14370,1659,11862,10,10,0,10,0.00,0.00,0.00,0.00
2014-07-31 20:50:00,0,15106,2,0.00,0,0,0,0,13448,17040,1166,15017,0,10,4,0,0.00,0.00,0.00,0.00
2014-07-31 21:00:00,0,19084,0,0.00,0,0,0,0,15503,21330,1914,19625,0,0,0,0,0.00,0.00,0.00,0.00
2014-07-31 21:10:00,0,21595,0,0.00,0,0,0,0,17039,23533,1986,22422,0,0,0,0,0.00,0.00,0.00,0.00
2014-07-31 21:20:00,0,20837,0,0.00,0,0,0,0,18473,24138,1597,20340,0,0,0,0,0.00,0.00,0.00,0.00
2014-07-31 21:30:00,0,21316,0,0.00,0,0,0,0,18953,23899,1527,21404,0,0,0,0,0.00,0.00,0.00,0.00
2014-07-31 21:40:00,0,20336,0,0.00,0,0,0,0,17532,23808,1704,19998,0,0,0,0,0.00,0.00,0.00,0.00
2014-07-31 21:50:00,0,30507,0,0.00,0,0,0,0,23228,45025,6481,28886,0,0,0,0,0.00,0.00,0.00,0.00
2014-07-31 22:00:00,0,47776,0,0.00,0,0,0,0,44746,50000,2052,47695,0,0,0,0,0.00,0.00,0.00,0.00
2014-07-31 22:10:00,0,48204,0,0.00,0,0,0,0,42738,50000,2848,50000,0,0,0,0,0.00,0.00,0.00,0.00
2014-07-31 22:20:00,0,48514,0,0.00,0,0,0,0,44640,50000,1806,49509,0,0,0,0,0.00,0.00,0.00,0.00
2014-07-31 22:30:00,0,45999,0,0.00,0,0,0,0,41319,50000,2961,46277,0,0,0,0,0.00,0.00,0.00,0.00
2014-07-31 22:40:00,0,38938,0,0.00,0,0,0,0,30948,45610,4531,41328,0,0,0,0,0.00,0.00,0.00,0.00
2014-07-31 22:50:00,0,42440,0,0.00,0,0,0,0,34683,48623,4380,43144,0,0,0,0,0.00,0.00,0.00,0.00
2014-07-31 23:00:00,0,31664,0,0.00,0,0,0,0,16103,47526,10652,29972,0,0,0,0,0.00,0.00,0.00,0.00
2014-07-31 23:10:00,0,16162,0,0.00,0,0,0,0,12650,19598,2217,16328,0,0,0,0,0.00,0.00,0.00,0.00
2014-07-31 23:20:00,0,8903,33,0.60,0,0,0,0,6005,16140,3691,6826,0,61,27,51,0.00,4.05,1.17,0.20
2014-07-31 23:30:00,0,15482,20,0.01,0,0,0,0,6128,24532,4928,15531,10,61,20,10,0.00,0.10,0.03,0.00
2014-07-31 23:40:00,0,12296,1,0.00,0,0,0,0,7977,20297,4337,10166,0,10,3,0,0.00,0.00,0.00,0.00
2014-07-31 23:50:00,0,15035,0,0.00,0,0,0,0,10790,22562,3783,13947,0,0,0,0,0.00,0.00,0.00,0.00
